AUA99B EKCH-LOWW

Flight info

Callsign AUA99B
Flight time 1h 14m
Altitude 39000
Route SALO1A SALLO M44 KOGIM M602 USEDU DCT LUROS M725 HDO DCT EVIKU DCT BITSI DCT MIKOV MIKO8W
Aircraft A319/M-SDE3FGHIRWY/LB1

Departure

Time 2026-04-23 20:50
Airport Copenhagen Kastrup Airport (EKCH)

Arrival

Time 2026-04-23 22:04
Airport Vienna International Airport (LOWW)
Time Latitude Longitude Altitude Speed Heading
2026-04-23 20:17 55.62667 12.64231 19 ft 0 kts 33°
2026-04-23 20:39 55.62662 12.64226 17 ft 4 kts 33°
2026-04-23 20:40 55.62641 12.64197 21 ft 4 kts 43°
2026-04-23 20:40 55.62624 12.64162 20 ft 4 kts 72°
2026-04-23 20:40 55.62624 12.64130 19 ft 1 kts 123°
2026-04-23 20:43 55.62620 12.64141 21 ft 3 kts 123°
2026-04-23 20:43 55.62599 12.64198 18 ft 8 kts 123°
2026-04-23 20:44 55.62561 12.64299 17 ft 12 kts 123°
2026-04-23 20:44 55.62507 12.64443 18 ft 16 kts 123°
2026-04-23 20:44 55.62442 12.64618 17 ft 17 kts 123°
2026-04-23 20:44 55.62375 12.64802 17 ft 18 kts 122°
2026-04-23 20:45 55.62306 12.64994 18 ft 19 kts 122°
2026-04-23 20:45 55.62236 12.65194 18 ft 19 kts 121°
2026-04-23 20:45 55.62212 12.65239 17 ft 3 kts 159°
2026-04-23 20:45 55.62183 12.65193 18 ft 11 kts 226°
2026-04-23 20:46 55.62113 12.65068 19 ft 16 kts 220°
2026-04-23 20:46 55.62021 12.64964 18 ft 16 kts 211°
2026-04-23 20:46 55.61921 12.64846 17 ft 18 kts 215°
2026-04-23 20:46 55.61816 12.64725 18 ft 18 kts 213°
2026-04-23 20:47 55.61706 12.64604 17 ft 19 kts 212°
2026-04-23 20:47 55.61595 12.64478 19 ft 19 kts 212°
2026-04-23 20:47 55.61480 12.64346 20 ft 20 kts 213°
2026-04-23 20:47 55.61362 12.64209 17 ft 21 kts 214°
2026-04-23 20:48 55.61241 12.64066 17 ft 21 kts 213°
2026-04-23 20:48 55.61115 12.63922 19 ft 22 kts 213°
2026-04-23 20:48 55.60986 12.63776 19 ft 22 kts 212°
2026-04-23 20:48 55.60856 12.63625 17 ft 20 kts 213°
2026-04-23 20:49 55.60747 12.63662 18 ft 18 kts 129°
2026-04-23 20:49 55.60690 12.63852 19 ft 17 kts 88°
2026-04-23 20:49 55.60777 12.64027 20 ft 27 kts 40°
2026-04-23 20:49 55.61139 12.64587 18 ft 109 kts 41°
2026-04-23 20:50 55.61868 12.65715 115 ft 159 kts 41°
2026-04-23 20:50 55.62702 12.67036 751 ft 161 kts 40°
2026-04-23 20:50 55.63539 12.68335 1419 ft 168 kts 38°
2026-04-23 20:50 55.64491 12.69804 1855 ft 191 kts 38°
2026-04-23 20:51 55.65544 12.71415 2239 ft 215 kts 37°
2026-04-23 20:51 55.66755 12.73213 2766 ft 240 kts 37°
2026-04-23 20:51 55.68075 12.75166 3605 ft 251 kts 37°
2026-04-23 20:51 55.69289 12.77428 4621 ft 260 kts 54°
2026-04-23 20:52 55.69930 12.80474 5645 ft 271 kts 78°
2026-04-23 20:52 55.69772 12.83900 6620 ft 285 kts 104°
2026-04-23 20:52 55.68749 12.86927 7485 ft 299 kts 133°
2026-04-23 20:52 55.66978 12.88921 8352 ft 309 kts 159°
2026-04-23 20:53 55.64951 12.90254 9256 ft 314 kts 159°
2026-04-23 20:53 55.62887 12.91631 10115 ft 320 kts 159°
2026-04-23 20:53 55.60744 12.93073 10563 ft 341 kts 159°
2026-04-23 20:53 55.58452 12.94618 10884 ft 365 kts 159°
2026-04-23 20:54 55.56009 12.96268 11228 ft 384 kts 159°
2026-04-23 20:54 55.53486 12.97974 11872 ft 392 kts 159°
2026-04-23 20:54 55.50921 12.99700 12623 ft 396 kts 159°
2026-04-23 20:54 55.48330 13.01434 13373 ft 401 kts 159°
2026-04-23 20:55 55.45708 13.03180 14090 ft 405 kts 159°
2026-04-23 20:55 55.43056 13.04939 14738 ft 409 kts 159°
2026-04-23 20:55 55.40378 13.06710 15387 ft 414 kts 159°
2026-04-23 20:55 55.37671 13.08501 16034 ft 418 kts 159°
2026-04-23 20:56 55.34931 13.10313 16673 ft 422 kts 159°
2026-04-23 20:56 55.32171 13.12136 17306 ft 427 kts 158°
2026-04-23 20:56 55.29375 13.13982 17929 ft 431 kts 158°
2026-04-23 20:56 55.26550 13.15847 18546 ft 436 kts 158°
2026-04-23 20:57 55.23705 13.17725 19091 ft 440 kts 158°
2026-04-23 20:57 55.20826 13.19617 19680 ft 443 kts 158°
2026-04-23 20:57 55.17934 13.21513 20258 ft 446 kts 158°
2026-04-23 20:57 55.15020 13.23422 20828 ft 448 kts 158°
2026-04-23 20:58 55.12094 13.25339 21377 ft 451 kts 158°
2026-04-23 20:58 55.09142 13.27269 21914 ft 455 kts 158°
2026-04-23 20:58 55.06162 13.29212 22404 ft 459 kts 158°
2026-04-23 20:58 55.03203 13.31136 22941 ft 461 kts 159°
2026-04-23 20:59 55.00192 13.33087 23474 ft 463 kts 159°
2026-04-23 20:59 54.97164 13.35045 23930 ft 465 kts 159°
2026-04-23 20:59 54.94122 13.37014 24333 ft 468 kts 159°
2026-04-23 20:59 54.91007 13.38688 24718 ft 471 kts 167°
2026-04-23 21:00 54.87765 13.39669 25104 ft 474 kts 172°
2026-04-23 21:00 54.84493 13.40541 25495 ft 477 kts 171°
2026-04-23 21:00 54.81203 13.41426 25878 ft 480 kts 171°
2026-04-23 21:00 54.77895 13.42319 26248 ft 482 kts 171°
2026-04-23 21:01 54.74566 13.43217 26607 ft 486 kts 171°
2026-04-23 21:01 54.71216 13.44112 26968 ft 488 kts 172°
2026-04-23 21:01 54.67847 13.45008 27322 ft 491 kts 172°
2026-04-23 21:01 54.64463 13.45910 27666 ft 494 kts 171°
2026-04-23 21:02 54.61062 13.46824 28005 ft 497 kts 171°
2026-04-23 21:02 54.57638 13.47745 28342 ft 499 kts 171°
2026-04-23 21:02 54.54195 13.48666 28669 ft 502 kts 171°
2026-04-23 21:02 54.50732 13.49588 28985 ft 505 kts 172°
2026-04-23 21:03 54.47252 13.50504 29319 ft 507 kts 172°
2026-04-23 21:03 54.43746 13.51401 29545 ft 512 kts 172°
2026-04-23 21:03 54.40255 13.52273 29828 ft 514 kts 172°
2026-04-23 21:03 54.36715 13.53148 30254 ft 514 kts 172°
2026-04-23 21:04 54.33197 13.54251 30623 ft 514 kts 165°
2026-04-23 21:04 54.29765 13.56160 31017 ft 512 kts 156°
2026-04-23 21:04 54.26598 13.58733 31395 ft 510 kts 151°
2026-04-23 21:04 54.23435 13.61470 31786 ft 509 kts 152°
2026-04-23 21:05 54.20284 13.64181 32229 ft 507 kts 152°
2026-04-23 21:05 54.17136 13.66868 32669 ft 505 kts 152°
2026-04-23 21:05 54.13993 13.69537 33096 ft 504 kts 152°
2026-04-23 21:05 54.10945 13.72430 33508 ft 501 kts 144°
2026-04-23 21:06 54.08169 13.75963 33928 ft 496 kts 136°
2026-04-23 21:06 54.05656 13.79965 34317 ft 494 kts 133°
2026-04-23 21:06 54.03173 13.83997 34698 ft 493 kts 133°
2026-04-23 21:06 54.00685 13.88001 35017 ft 494 kts 135°
2026-04-23 21:07 53.97945 13.91558 35344 ft 497 kts 146°
2026-04-23 21:07 53.94895 13.94346 35675 ft 499 kts 155°
2026-04-23 21:07 53.91625 13.96290 36023 ft 499 kts 165°
2026-04-23 21:07 53.88217 13.97362 36387 ft 497 kts 175°
2026-04-23 21:08 53.84781 13.97769 36717 ft 495 kts 177°
2026-04-23 21:08 53.81342 13.98131 37046 ft 494 kts 177°
2026-04-23 21:08 53.77912 13.98494 37370 ft 493 kts 177°
2026-04-23 21:08 53.74488 13.98861 37689 ft 492 kts 177°
2026-04-23 21:09 53.71072 13.99228 38004 ft 491 kts 177°
2026-04-23 21:09 53.67672 13.99593 38313 ft 490 kts 177°
2026-04-23 21:09 53.64271 13.99949 38624 ft 489 kts 178°
2026-04-23 21:09 53.60878 14.00299 38901 ft 488 kts 178°
2026-04-23 21:10 53.57490 14.00649 39086 ft 488 kts 177°
2026-04-23 21:10 53.54094 14.01001 39138 ft 491 kts 177°
2026-04-23 21:10 53.47205 14.01710 39145 ft 501 kts 177°
2026-04-23 21:11 53.40227 14.02428 39137 ft 504 kts 177°
2026-04-23 21:11 53.33199 14.03148 39147 ft 507 kts 177°
2026-04-23 21:12 53.27342 14.03753 39146 ft 508 kts 177°
2026-04-23 21:12 53.20285 14.04476 39145 ft 508 kts 177°
2026-04-23 21:13 53.13221 14.05199 39143 ft 508 kts 177°
2026-04-23 21:13 53.05012 14.06043 39152 ft 508 kts 177°
2026-04-23 21:14 52.99097 14.06651 39157 ft 508 kts 177°
2026-04-23 21:14 52.92033 14.07355 39160 ft 508 kts 177°
2026-04-23 21:15 52.84976 14.08070 39162 ft 508 kts 177°
2026-04-23 21:15 52.77921 14.08786 39165 ft 508 kts 177°
2026-04-23 21:16 52.70922 14.09489 39163 ft 507 kts 177°
2026-04-23 21:16 52.63875 14.10192 39166 ft 507 kts 177°
2026-04-23 21:17 52.56835 14.10883 39166 ft 507 kts 177°
2026-04-23 21:17 52.49786 14.11575 39167 ft 508 kts 176°
2026-04-23 21:18 52.42718 14.12279 39154 ft 509 kts 176°
2026-04-23 21:18 52.35641 14.12978 39152 ft 509 kts 176°
2026-04-23 21:19 52.28566 14.13678 39160 ft 510 kts 176°
2026-04-23 21:19 52.21488 14.14385 39164 ft 510 kts 176°
2026-04-23 21:20 52.14411 14.15078 39162 ft 510 kts 176°
2026-04-23 21:20 52.07324 14.15762 39171 ft 510 kts 176°
2026-04-23 21:21 52.00249 14.16442 39172 ft 510 kts 176°
2026-04-23 21:21 51.93166 14.17126 39173 ft 509 kts 176°
2026-04-23 21:22 51.86103 14.17963 39170 ft 509 kts 173°
2026-04-23 21:22 51.79129 14.19395 39174 ft 508 kts 171°
2026-04-23 21:23 51.72093 14.21040 39174 ft 508 kts 171°
2026-04-23 21:23 51.65130 14.22537 39177 ft 508 kts 172°
2026-04-23 21:24 51.58070 14.23919 39185 ft 507 kts 172°
2026-04-23 21:24 51.51111 14.25277 39186 ft 507 kts 172°
2026-04-23 21:25 51.44112 14.26694 39188 ft 507 kts 172°
2026-04-23 21:25 51.37122 14.28115 39188 ft 506 kts 172°
2026-04-23 21:26 51.30140 14.29507 39196 ft 505 kts 172°
2026-04-23 21:26 51.23162 14.30885 39196 ft 505 kts 172°
2026-04-23 21:27 51.16184 14.32271 39201 ft 505 kts 171°
2026-04-23 21:27 51.09210 14.33654 39213 ft 505 kts 171°
2026-04-23 21:28 51.02229 14.35032 39193 ft 506 kts 171°
2026-04-23 21:28 50.95237 14.36404 39179 ft 507 kts 171°
2026-04-23 21:29 50.88333 14.38544 39188 ft 505 kts 164°
2026-04-23 21:29 50.81484 14.41099 39192 ft 506 kts 164°
2026-04-23 21:30 50.74636 14.43625 39195 ft 506 kts 164°
2026-04-23 21:30 50.67825 14.46136 39198 ft 506 kts 164°
2026-04-23 21:31 50.60981 14.48667 39202 ft 505 kts 164°
2026-04-23 21:31 50.54148 14.51192 39203 ft 504 kts 164°
2026-04-23 21:32 50.47512 14.54493 39222 ft 497 kts 150°
2026-04-23 21:32 50.41882 14.60525 39191 ft 486 kts 131°
2026-04-23 21:33 50.37059 14.67864 39183 ft 483 kts 130°
2026-04-23 21:33 50.32229 14.75168 39181 ft 483 kts 131°
2026-04-23 21:34 50.27391 14.82446 39185 ft 483 kts 131°
2026-04-23 21:34 50.22547 14.89714 39185 ft 483 kts 130°
2026-04-23 21:35 50.17698 14.96982 39189 ft 484 kts 130°
2026-04-23 21:35 50.12842 15.04252 39181 ft 484 kts 130°
2026-04-23 21:36 50.05529 15.15135 39179 ft 485 kts 131°
2026-04-23 21:37 50.00643 15.22371 39217 ft 486 kts 130°
2026-04-23 21:37 49.95745 15.29619 39198 ft 486 kts 130°
2026-04-23 21:38 49.90839 15.36850 39196 ft 487 kts 131°
2026-04-23 21:38 49.85921 15.44079 39185 ft 487 kts 131°
2026-04-23 21:39 49.81010 15.51268 39168 ft 485 kts 130°
2026-04-23 21:39 49.76113 15.58426 39161 ft 484 kts 130°
2026-04-23 21:40 49.71211 15.65573 39163 ft 485 kts 130°
2026-04-23 21:40 49.66302 15.72714 39160 ft 485 kts 130°
2026-04-23 21:41 49.61416 15.79793 39165 ft 485 kts 130°
2026-04-23 21:41 49.56455 15.86957 39165 ft 486 kts 130°
2026-04-23 21:42 49.51552 15.94020 39188 ft 486 kts 130°
2026-04-23 21:42 49.46615 16.01105 39175 ft 486 kts 131°
2026-04-23 21:43 49.41674 16.08172 39173 ft 485 kts 131°
2026-04-23 21:43 49.36732 16.15231 39165 ft 485 kts 131°
2026-04-23 21:44 49.31725 16.22170 39178 ft 489 kts 137°
2026-04-23 21:44 49.25762 16.27420 39162 ft 499 kts 149°
2026-04-23 21:45 49.19514 16.32016 39161 ft 498 kts 149°
2026-04-23 21:45 49.13277 16.36618 39156 ft 497 kts 149°
2026-04-23 21:46 49.07056 16.41202 39067 ft 492 kts 149°
2026-04-23 21:46 49.03970 16.43473 38278 ft 494 kts 149°
2026-04-23 21:46 49.00872 16.45754 37441 ft 495 kts 149°
2026-04-23 21:46 48.97781 16.48023 36651 ft 491 kts 148°
2026-04-23 21:47 48.94725 16.50257 35884 ft 483 kts 148°
2026-04-23 21:47 48.91719 16.52447 35137 ft 476 kts 148°
2026-04-23 21:47 48.88753 16.54602 34403 ft 469 kts 148°
2026-04-23 21:47 48.85828 16.56726 33648 ft 466 kts 148°
2026-04-23 21:48 48.82896 16.58861 32838 ft 469 kts 148°
2026-04-23 21:48 48.79951 16.60994 32053 ft 472 kts 150°
2026-04-23 21:48 48.76826 16.62648 31278 ft 480 kts 162°
2026-04-23 21:48 48.73560 16.63761 30538 ft 481 kts 164°
2026-04-23 21:49 48.70289 16.64836 29744 ft 481 kts 164°
2026-04-23 21:49 48.67016 16.65898 28905 ft 481 kts 164°
2026-04-23 21:49 48.63748 16.66953 28098 ft 480 kts 165°
2026-04-23 21:49 48.60490 16.68007 27310 ft 478 kts 165°
2026-04-23 21:50 48.57193 16.68677 26549 ft 480 kts 176°
2026-04-23 21:50 48.53864 16.68457 25818 ft 480 kts 185°
2026-04-23 21:50 48.50553 16.67939 25081 ft 477 kts 185°
2026-04-23 21:50 48.47263 16.67431 24362 ft 471 kts 185°
2026-04-23 21:51 48.44052 16.66943 23659 ft 458 kts 185°
2026-04-23 21:51 48.40920 16.66470 22849 ft 446 kts 185°
2026-04-23 21:51 48.37862 16.66010 22061 ft 438 kts 185°
2026-04-23 21:51 48.34865 16.65562 21288 ft 431 kts 185°
2026-04-23 21:52 48.31901 16.65118 20541 ft 424 kts 185°
2026-04-23 21:52 48.28993 16.64680 19808 ft 417 kts 185°
2026-04-23 21:52 48.26114 16.64240 18889 ft 416 kts 185°
2026-04-23 21:52 48.23274 16.63963 17902 ft 414 kts 175°
2026-04-23 21:53 48.20481 16.64805 16855 ft 408 kts 156°
2026-04-23 21:53 48.18025 16.66906 15836 ft 399 kts 137°
2026-04-23 21:53 48.16206 16.69887 14853 ft 389 kts 119°
2026-04-23 21:53 48.14950 16.73421 13896 ft 382 kts 112°
2026-04-23 21:54 48.13782 16.76971 12833 ft 379 kts 112°
2026-04-23 21:54 48.12620 16.80496 11807 ft 375 kts 112°
2026-04-23 21:54 48.11469 16.83975 10812 ft 372 kts 113°
2026-04-23 21:54 48.10323 16.87424 9829 ft 367 kts 113°
2026-04-23 21:55 48.09189 16.90822 8757 ft 363 kts 113°
2026-04-23 21:55 48.08065 16.94186 7733 ft 359 kts 113°
2026-04-23 21:55 48.06955 16.97510 6747 ft 355 kts 114°
2026-04-23 21:55 48.05523 17.00445 6078 ft 346 kts 139°
2026-04-23 21:56 48.03449 17.02034 5561 ft 330 kts 169°
2026-04-23 21:56 48.01251 17.01947 5045 ft 308 kts 202°
2026-04-23 21:56 47.99565 17.00322 4721 ft 276 kts 238°
2026-04-23 21:56 47.98863 16.97882 4460 ft 245 kts 271°
2026-04-23 21:57 47.98800 16.95417 4199 ft 230 kts 284°
2026-04-23 21:57 47.99217 16.93211 3945 ft 215 kts 299°
2026-04-23 21:57 47.99840 16.91222 3691 ft 208 kts 302°
2026-04-23 21:57 48.00480 16.89297 3437 ft 206 kts 303°
2026-04-23 21:58 48.01113 16.87388 3201 ft 205 kts 303°
2026-04-23 21:58 48.01744 16.85476 3033 ft 205 kts 303°
2026-04-23 21:58 48.02372 16.83571 2996 ft 204 kts 302°
2026-04-23 21:58 48.03001 16.81664 3001 ft 204 kts 302°
2026-04-23 21:59 48.03610 16.79808 3001 ft 191 kts 302°
2026-04-23 21:59 48.04170 16.78098 3001 ft 175 kts 303°
2026-04-23 21:59 48.04679 16.76547 3022 ft 158 kts 304°
2026-04-23 22:00 48.05585 16.73799 2929 ft 143 kts 305°
2026-04-23 22:00 48.06023 16.72469 2787 ft 142 kts 304°
2026-04-23 22:00 48.06450 16.71167 2617 ft 132 kts 304°
2026-04-23 22:00 48.06700 16.70396 2504 ft 119 kts 306°
2026-04-23 22:01 48.07054 16.69321 2363 ft 112 kts 308°
2026-04-23 22:01 48.07392 16.68293 2214 ft 109 kts 308°
2026-04-23 22:01 48.07722 16.67287 2070 ft 107 kts 308°
2026-04-23 22:01 48.08048 16.66294 1921 ft 106 kts 309°
2026-04-23 22:02 48.08373 16.65305 1789 ft 107 kts 308°
2026-04-23 22:02 48.08705 16.64292 1642 ft 110 kts 306°
2026-04-23 22:02 48.09043 16.63259 1481 ft 111 kts 305°
2026-04-23 22:02 48.09392 16.62194 1340 ft 115 kts 301°
2026-04-23 22:03 48.09747 16.61107 1175 ft 118 kts 299°
2026-04-23 22:03 48.10103 16.60016 1018 ft 116 kts 298°
2026-04-23 22:03 48.10459 16.58929 853 ft 117 kts 299°
2026-04-23 22:03 48.10821 16.57822 681 ft 119 kts 299°
2026-04-23 22:04 48.11167 16.56784 617 ft 99 kts 296°
2026-04-23 22:04 48.11403 16.56031 617 ft 61 kts 296°
2026-04-23 22:04 48.11546 16.55599 621 ft 36 kts 296°
2026-04-23 22:04 48.11663 16.55346 610 ft 28 kts 315°
2026-04-23 22:05 48.11791 16.55166 615 ft 21 kts 327°
2026-04-23 22:05 48.11878 16.55222 613 ft 17 kts 98°
2026-04-23 22:05 48.11824 16.55388 618 ft 18 kts 116°
2026-04-23 22:05 48.11768 16.55559 620 ft 19 kts 117°
2026-04-23 22:06 48.11712 16.55737 619 ft 19 kts 115°
2026-04-23 22:06 48.11651 16.55918 616 ft 20 kts 116°
2026-04-23 22:06 48.11590 16.56106 615 ft 20 kts 110°
2026-04-23 22:06 48.11669 16.56250 610 ft 20 kts 28°
2026-04-23 22:07 48.11754 16.56374 610 ft 18 kts 103°
2026-04-23 22:07 48.11701 16.56544 618 ft 18 kts 116°
2026-04-23 22:07 48.11643 16.56717 618 ft 19 kts 116°
2026-04-23 22:07 48.11592 16.56875 610 ft 12 kts 113°
2026-04-23 22:08 48.11639 16.56940 615 ft 9 kts 23°
2026-04-23 22:08 48.11658 16.56955 610 ft 2 kts 27°
2026-04-23 22:08 48.11660 16.56956 610 ft 0 kts 26°